timestamp,surface_pressure_avg,surface_temp_avg,battery_voltage,lat,long
2024-03-23 00:09:00+00:00,308.6863,1.9,11.77,47.84626,-54.09684
2024-03-23 00:19:00+00:00,304.7897,1.88,11.7,47.84626,-54.09684
2024-03-23 00:29:00+00:00,296.1348,1.87,11.7,47.84626,-54.09684
2024-03-23 00:39:00+00:00,293.8414,1.8,11.7,47.84626,-54.09684
2024-03-23 00:49:00+00:00,290.5197,1.8,11.7,47.84626,-54.09684
2024-03-23 00:59:00+00:00,282.8663,1.8,11.7,47.84626,-54.09684
2024-03-23 01:09:00+00:00,274.3748,1.8,11.7,47.84626,-54.09684
2024-03-23 01:19:00+00:00,270.9081,1.8,11.7,47.84626,-54.09684
2024-03-23 01:29:00+00:00,268.0614,1.87,11.7,47.84626,-54.09684
2024-03-23 01:39:00+00:00,263.4897,1.8,11.7,47.84626,-54.09684
2024-03-23 01:49:00+00:00,257.7664,1.8,11.7,47.84626,-54.09684
2024-03-23 01:59:00+00:00,252.6581,1.86,11.7,47.84626,-54.09684
2024-03-23 02:09:00+00:00,249.0897,1.88,11.7,47.84626,-54.09684
2024-03-23 02:19:00+00:00,244.5697,1.8,11.7,47.84626,-54.09684
2024-03-23 02:29:00+00:00,238.5631,1.8,11.7,47.84626,-54.09684
2024-03-23 02:39:00+00:00,232.7998,1.81,11.7,47.84626,-54.09684
2024-03-23 02:49:00+00:00,226.9081,1.8,11.7,47.84626,-54.09684
2024-03-23 02:59:00+00:00,218.4298,1.8,11.7,47.84626,-54.09684
2024-03-23 03:09:00+00:00,210.3381,1.81,11.7,47.84626,-54.09684
2024-03-23 03:19:00+00:00,205.0798,1.8,11.7,47.84626,-54.09684
2024-03-23 03:29:00+00:00,202.9481,1.8,11.7,47.84626,-54.09684
2024-03-23 03:39:00+00:00,200.0798,1.72,11.7,47.84626,-54.09684
2024-03-23 03:49:00+00:00,196.6581,1.7,11.7,47.84626,-54.09684
2024-03-23 03:59:00+00:00,194.8198,1.7,11.7,47.84626,-54.09684
2024-03-23 04:09:00+00:00,195.1131,1.68,11.7,47.84626,-54.09684
2024-03-23 04:19:00+00:00,195.4114,1.69,11.7,47.84626,-54.09684
2024-03-23 04:29:00+00:00,191.3831,1.75,11.7,47.84626,-54.09684
2024-03-23 04:39:00+00:00,189.7098,1.7,11.7,47.84626,-54.09684
2024-03-23 04:49:00+00:00,191.1631,1.7,11.7,47.84626,-54.09684
2024-03-23 04:59:00+00:00,188.0198,1.7,11.7,47.84626,-54.09684
2024-03-23 05:09:00+00:00,187.0665,1.7,11.7,47.84626,-54.09684
2024-03-23 05:19:00+00:00,190.9415,1.7,11.7,47.84626,-54.09684
2024-03-23 05:29:00+00:00,192.1331,1.71,11.7,47.84626,-54.09684
2024-03-23 05:39:00+00:00,192.3698,1.77,11.7,47.84626,-54.09684
2024-03-23 05:49:00+00:00,196.5681,1.79,11.7,47.84626,-54.09684
2024-03-23 05:59:00+00:00,201.8615,1.8,11.7,47.84626,-54.09684
2024-03-23 06:09:00+00:00,203.8298,1.79,11.7,47.84626,-54.09684
2024-03-23 06:19:00+00:00,206.6281,1.78,11.7,47.84626,-54.09684
2024-03-23 06:29:00+00:00,212.8731,1.72,11.7,47.84626,-54.09684
2024-03-23 06:39:00+00:00,217.4414,1.77,11.7,47.84626,-54.09684
2024-03-23 06:49:00+00:00,219.3381,1.78,11.7,47.84626,-54.09684
2024-03-23 06:59:00+00:00,221.6314,1.78,11.7,47.84626,-54.09684
2024-03-23 07:09:00+00:00,226.6298,1.77,11.7,47.84626,-54.09684
2024-03-23 07:19:00+00:00,231.8197,1.7,11.7,47.84626,-54.09684
2024-03-23 07:29:00+00:00,234.3748,1.7,11.7,47.84626,-54.09684
2024-03-23 07:39:00+00:00,237.0131,1.65,11.7,47.84626,-54.09684
2024-03-23 07:49:00+00:00,244.5115,1.69,11.7,47.84626,-54.09684
2024-03-23 07:59:00+00:00,250.6064,1.7,11.7,47.84626,-54.09684
2024-03-23 08:09:00+00:00,253.5231,1.69,11.7,47.84626,-54.09684
2024-03-23 08:19:00+00:00,257.0797,1.7,11.7,47.84626,-54.09684
2024-03-23 08:29:00+00:00,268.6048,1.7,11.7,47.84626,-54.09684
2024-03-23 08:39:00+00:00,279.2764,1.7,11.7,47.84626,-54.09684
2024-03-23 08:49:00+00:00,284.858,1.7,11.7,47.84626,-54.09684
2024-03-23 08:59:00+00:00,289.0613,1.7,11.7,47.84626,-54.09684
2024-03-23 09:09:00+00:00,297.7731,1.7,11.7,47.84626,-54.09684
2024-03-23 09:19:00+00:00,302.158,1.75,11.7,47.84626,-54.09684
2024-03-23 09:29:00+00:00,305.918,1.78,11.7,47.84626,-54.09684
2024-03-23 09:39:00+00:00,312.4847,1.76,11.7,47.84626,-54.09684
2024-03-23 09:49:00+00:00,318.7947,1.77,11.7,47.84626,-54.09684
2024-03-23 09:59:00+00:00,319.053,1.71,11.7,47.84626,-54.09684
2024-03-23 10:09:00+00:00,320.4996,1.7,11.7,47.84626,-54.09684
2024-03-23 10:19:00+00:00,328.528,1.7,11.7,47.84626,-54.09684
2024-03-23 10:29:00+00:00,331.0713,1.7,11.7,47.84626,-54.09684
2024-03-23 10:39:00+00:00,330.9529,1.7,11.7,47.84626,-54.09684
2024-03-23 10:49:00+00:00,332.9980000000001,1.7,11.7,47.84626,-54.09684
2024-03-23 10:59:00+00:00,335.55300000000005,1.7,11.7,47.84626,-54.09684
2024-03-23 11:09:00+00:00,334.5680000000001,1.6,11.7,47.84626,-54.09684
2024-03-23 11:19:00+00:00,332.6579,1.68,11.7,47.84626,-54.09684
2024-03-23 11:29:00+00:00,334.2062,1.7,11.7,47.84626,-54.09684
2024-03-23 11:39:00+00:00,334.8730000000001,1.61,11.7,47.84626,-54.09684
2024-03-23 11:49:00+00:00,334.9146,1.7,11.7,47.84626,-54.09684
2024-03-23 11:59:00+00:00,333.3046,1.7,11.7,47.84626,-54.09684
2024-03-23 12:09:00+00:00,328.7162,1.7,11.7,47.84626,-54.09684
2024-03-23 12:19:00+00:00,327.3596,1.7,11.7,47.84626,-54.09684
2024-03-23 12:29:00+00:00,324.378,1.7,11.7,47.84626,-54.09684
2024-03-23 12:39:00+00:00,318.4597,1.7,11.7,47.84626,-54.09684
2024-03-23 12:49:00+00:00,313.2496,1.7,11.7,47.84626,-54.09684
2024-03-23 12:59:00+00:00,312.0864,1.7,11.7,47.84626,-54.09684
2024-03-23 13:09:00+00:00,306.9947,1.7,11.7,47.84626,-54.09684
2024-03-23 13:19:00+00:00,298.0914,1.7,11.77,47.84626,-54.09684
2024-03-23 13:29:00+00:00,290.0497,1.7,11.77,47.84626,-54.09684
2024-03-23 13:39:00+00:00,282.7264,1.7,11.77,47.84626,-54.09684
2024-03-23 13:49:00+00:00,272.8764,1.7,11.77,47.84626,-54.09684
2024-03-23 13:59:00+00:00,264.6097,1.7,11.77,47.84626,-54.09684
2024-03-23 14:09:00+00:00,260.9831,1.7,11.77,47.84626,-54.09684
2024-03-23 14:19:00+00:00,254.3481,1.7,12.01,47.84626,-54.09684
2024-03-23 14:29:00+00:00,242.3597,1.7,12.01,47.84626,-54.09684
2024-03-23 14:39:00+00:00,236.6914,1.71,12.01,47.84626,-54.09684
2024-03-23 14:49:00+00:00,236.0131,1.71,12.01,47.84626,-54.09684
2024-03-23 14:59:00+00:00,233.0514,1.71,12.01,47.84626,-54.09684
2024-03-23 15:09:00+00:00,224.8748,1.73,12.01,47.84626,-54.09684
2024-03-23 15:19:00+00:00,215.4448,1.74,12.01,47.84626,-54.09684
2024-03-23 15:29:00+00:00,211.1964,1.74,12.01,47.84626,-54.09684
2024-03-23 15:39:00+00:00,208.0498,1.73,12.01,47.84626,-54.09684
2024-03-23 15:49:00+00:00,202.7481,1.75,12.01,47.84626,-54.09684
2024-03-23 15:59:00+00:00,199.6798,1.79,12.01,47.84626,-54.09684
2024-03-23 16:09:00+00:00,194.3915,1.79,12.01,47.84626,-54.09684
2024-03-23 16:19:00+00:00,187.3348,1.8,12.09,47.84626,-54.09684
2024-03-23 16:29:00+00:00,186.8781,1.8,12.09,47.84626,-54.09684
2024-03-23 16:39:00+00:00,188.3048,1.8,12.09,47.84626,-54.09684
2024-03-23 16:49:00+00:00,186.9315,1.8,12.09,47.84626,-54.09684
2024-03-23 16:59:00+00:00,183.6498,1.8,12.09,47.84626,-54.09684
2024-03-23 17:09:00+00:00,184.6965,1.84,12.09,47.84626,-54.09684
2024-03-23 17:19:00+00:00,192.1982,1.83,12.17,47.84626,-54.09684
2024-03-23 17:29:00+00:00,193.8481,1.86,12.17,47.84626,-54.09684
2024-03-23 17:39:00+00:00,190.0764,1.93,12.17,47.84626,-54.09684
2024-03-23 17:49:00+00:00,190.5414,1.98,12.17,47.84626,-54.09684
2024-03-23 17:59:00+00:00,189.8331,2.0,12.17,47.84626,-54.09684
2024-03-23 18:09:00+00:00,187.7365,2.0,12.17,47.84626,-54.09684
2024-03-23 18:19:00+00:00,194.0065,2.0,12.09,47.84626,-54.09684
2024-03-23 18:29:00+00:00,201.9214,2.0,12.09,47.84626,-54.09684
2024-03-23 18:39:00+00:00,200.2148,2.08,12.09,47.84626,-54.09684
2024-03-23 18:49:00+00:00,205.1431,2.1,12.09,47.84626,-54.09684
2024-03-23 18:59:00+00:00,218.0948,2.1,12.09,47.84626,-54.09684
2024-03-23 19:09:00+00:00,222.1097,2.1,12.09,47.84626,-54.09684
2024-03-23 19:19:00+00:00,223.1881,2.1,12.01,47.84626,-54.09684
2024-03-23 19:29:00+00:00,228.8698,2.09,12.01,47.84626,-54.09684
2024-03-23 19:39:00+00:00,235.103,2.1,12.01,47.84626,-54.09684
2024-03-23 19:49:00+00:00,235.5314,2.08,12.01,47.84626,-54.09684
2024-03-23 19:59:00+00:00,237.9464,2.0,12.01,47.84626,-54.09684
2024-03-23 20:09:00+00:00,244.9181,2.05,12.01,47.84626,-54.09684
2024-03-23 20:19:00+00:00,253.1364,2.08,11.93,47.84626,-54.09684
2024-03-23 20:29:00+00:00,259.2231,2.0,11.93,47.84626,-54.09684
2024-03-23 20:39:00+00:00,268.1464,1.98,11.93,47.84626,-54.09684
2024-03-23 20:49:00+00:00,280.813,2.0,11.93,47.84626,-54.09684
2024-03-23 20:59:00+00:00,291.7646,2.0,11.93,47.84626,-54.09684
2024-03-23 21:09:00+00:00,293.3997,2.0,11.93,47.84626,-54.09684
2024-03-23 21:19:00+00:00,299.338,2.0,11.86,47.84626,-54.09684
2024-03-23 21:29:00+00:00,302.993,2.0,11.86,47.84626,-54.09684
2024-03-23 21:39:00+00:00,308.4547,2.0,11.86,47.84626,-54.09684
2024-03-23 21:49:00+00:00,313.9913,2.0,11.86,47.84626,-54.09684
2024-03-23 21:59:00+00:00,316.4064,2.0,11.86,47.84626,-54.09684
2024-03-23 22:09:00+00:00,315.593,2.0,11.86,47.84626,-54.09684
2024-03-23 22:19:00+00:00,319.7663,2.0,11.77,47.84626,-54.09684
2024-03-23 22:29:00+00:00,327.783,2.0,11.77,47.84626,-54.09684
2024-03-23 22:39:00+00:00,324.2762,2.0,11.77,47.84626,-54.09684
2024-03-23 22:49:00+00:00,328.9463,2.0,11.77,47.84626,-54.09684
2024-03-23 22:59:00+00:00,337.793,2.0,11.77,47.84626,-54.09684
2024-03-23 23:09:00+00:00,337.6379,1.9,11.77,47.84626,-54.09684
2024-03-23 23:19:00+00:00,330.8763,1.79,11.77,47.84626,-54.09684
2024-03-23 23:29:00+00:00,326.6281,1.7,11.77,47.84626,-54.09684
2024-03-23 23:39:00+00:00,328.2279,1.75,11.77,47.84626,-54.09684
2024-03-23 23:49:00+00:00,326.2297,1.79,11.77,47.84626,-54.09684
2024-03-23 23:59:00+00:00,321.733,1.79,11.77,47.84626,-54.09684
